Date,TemperatureHighF,TemperatureAvgF,TemperatureLowF,DewpointHighF,DewpointAvgF,DewpointLowF,HumidityHigh,HumidityAvg,HumidityLow,PressureMaxIn,PressureMinIn,WindSpeedMaxMPH,WindSpeedAvgMPH,GustSpeedMaxMPH,PrecipitationSumIn
2013-2-1,12.1,4.2,-3.3,9.5,-1.2,-8.0,89,78,68,30.32,30.14,12,4,14,0.00
2013-2-2,20.7,12.4,3.6,18.8,8.3,-0.4,93,83,73,30.13,29.99,16,3,17,0.00
2013-2-3,21.1,14.9,7.1,15.9,10.1,2.0,91,81,68,30.04,29.93,14,2,15,0.00
2013-2-4,24.6,18.7,8.1,21.0,15.6,2.4,93,87,73,30.01,29.87,12,2,14,0.00
2013-2-5,28.2,20.2,4.1,25.7,16.6,0.6,93,85,77,30.08,29.78,13,2,16,0.00
2013-2-6,37.2,25.7,5.9,30.1,20.6,3.6,96,81,67,30.22,30.08,10,1,11,0.07
2013-2-7,33.9,32.3,26.6,32.4,30.6,25.3,97,94,84,30.09,29.86,5,0,8,0.32
2013-2-8,26.5,22.7,19.9,25.3,20.5,17.8,95,91,87,30.39,29.97,3,0,4,0.00
2013-2-9,33.4,26.0,19.0,27.9,22.9,16.6,96,88,77,30.38,30.07,11,1,13,0.00
2013-2-10,44.9,37.4,25.3,43.5,35.2,23.6,97,92,75,30.07,29.48,17,3,22,0.15
2013-2-11,41.3,31.1,26.3,34.3,25.3,20.3,88,79,74,30.02,29.49,26,8,26,0.00
2013-2-12,27.2,23.6,20.6,21.2,19.5,17.7,93,84,76,30.09,29.90,13,2,13,0.00
2013-2-13,40.3,30.3,19.0,33.5,26.8,17.8,96,87,74,29.89,29.71,10,1,12,0.00
2013-2-14,36.9,34.5,30.8,32.1,28.7,23.2,90,80,64,29.97,29.62,16,4,18,0.00
2013-2-15,30.9,23.7,16.2,25.0,14.5,7.5,86,68,45,30.17,29.97,15,4,17,0.00
2013-2-16,16.9,12.4,5.6,9.2,4.6,0.5,85,71,58,30.18,30.11,13,2,15,0.00
2013-2-17,32.0,17.8,3.5,17.0,7.4,1.0,91,66,38,30.19,29.96,6,1,8,0.00
2013-2-18,49.7,37.7,24.3,44.4,31.3,16.9,97,78,64,29.97,29.42,16,5,21,0.36
2013-2-19,24.2,12.6,8.3,21.7,8.0,3.4,90,82,75,30.17,29.56,18,6,20,0.00
2013-2-20,20.9,12.1,5.3,12.3,5.9,-0.3,90,76,67,30.35,30.17,13,3,13,0.00
2013-2-21,27.3,22.2,11.1,24.2,18.8,8.5,93,87,83,30.37,29.98,11,-2,14,0.00
2013-2-22,32.2,27.0,23.3,29.4,24.7,21.3,94,91,87,29.97,29.78,14,-2,15,0.00
2013-2-23,29.1,24.0,18.4,23.7,19.3,15.5,90,82,67,29.95,29.87,12,3,16,0.00
2013-2-24,37.8,23.7,12.5,24.3,17.9,10.4,92,79,56,30.14,29.95,5,1,7,0.09
2013-2-25,48.8,30.0,14.6,29.1,22.7,12.7,95,76,42,30.16,29.96,7,0,9,0.03
2013-2-26,35.4,32.3,30.0,30.8,29.0,26.8,98,88,72,29.96,29.54,20,6,24,0.00
2013-2-27,33.0,31.1,28.9,31.1,29.9,28.0,98,95,91,29.72,29.53,14,5,15,0.00
2013-2-28,35.2,31.2,25.5,30.3,27.1,19.9,95,85,76,30.07,29.71,16,6,20,0.01